Regional Weather Roundup
Issued by NWS Upton, NY

Current Version | Previous Version | Text Only | Print | Product List | Glossary On
Versions: 1 2 3 4 5 6 7 8 9 10 11 12 13 14 15 16 17 18 19 20 21 22 23 24 25 26 27 28 29 30 31 32 33 34 35 36 37 38 39 40 41 42 43 44 45 46 47 48 49 50
000
ASUS41 KOKX 200805
RWROKX

REGIONAL WEATHER ROUNDUP
NATIONAL WEATHER SERVICE NEW YORK NY
400 AM EDT WED AUG 20 2014

NOTE: "FAIR" INDICATES FEW OR NO CLOUDS BELOW 12,000 FEET WITH NO
SIGNIFICANT WEATHER AND/OR OBSTRUCTIONS TO VISIBILITY.

NYZ071-072-176-178-NJZ106-104-200900-
NEW YORK CITY METRO AREA


CITY           SKY/WX    TMP DP  RH WIND       PRES   REMARKS
CENTRAL PARK   CLOUDY    71  63  75 CALM      29.97F
LAGUARDIA APRT PTCLDY    71  64  78 S3        29.94S
KENNEDY INTL   PTCLDY    67  62  84 CALM      29.95S
NEWARK/LIBERTY MOCLDY    71  65  81 CALM      29.94F
BRNX BOT. GARD   N/A     66  64  94 CALM      29.97S
TETERBORO      CLOUDY    70  64  81 CALM      29.94S
$$

NYZ177-179-078>081-200900-
LONG ISLAND NEW YORK

CITY           SKY/WX    TMP DP  RH WIND       PRES   REMARKS
FARMINGDALE    CLEAR     65  62  90 NW5       29.96R
ISLIP          CLEAR     63  60  90 CALM      29.94R
SHIRLEY        FOG       59  58  96 CALM      29.96R VSB 1/2
WESTHAMPTON    FOG       57  54  89 CALM      29.97S VSB 1/2
MONTAUK POINT    N/A     62  59  90 CALM      29.97S
$$

NYZ052-065-067-200900-
HUDSON VALLEY

CITY           SKY/WX    TMP DP  RH WIND       PRES   REMARKS
WHITE PLAINS   MOCLDY    63  62  97 CALM      29.96R
NEWBURGH       PTCLDY    64  63  94 CALM      29.97R
MONTGOMERY     MOCLDY    60  57  89 CALM      29.95S
POUGHKEEPSIE   PTCLDY    62  59  90 CALM      29.95R
ALBANY         MOCLDY    60  57  89 N3        29.95S
$$

NJZ001-105-106-008-010-013-015-019>022-104-200900-
NEW JERSEY

CITY           SKY/WX    TMP DP  RH WIND       PRES   REMARKS
NEWARK/LIBERTY MOCLDY    71  65  81 CALM      29.94F
TETERBORO      CLOUDY    70  64  81 CALM      29.94S
CALDWELL       MOCLDY    65  62  90 CALM      29.95F
MORRISTOWN     MOCLDY    63  59  88 CALM      29.95S
SOMERVILLE     CLOUDY    66  62  87 CALM      29.93S
LINDEN         FAIR      73  66  80 CALM      29.96S
SUSSEX         MOCLDY    65  61  87 CALM      29.95S
ANDOVER        NOT AVBL
TRENTON        CLOUDY    68  62  81 CALM      29.94S
MILLVILLE      MOCLDY    65  63  93 CALM      29.93S
ATLANTIC CITY  PTCLDY    63  62  97 CALM      29.93S
WRIGHTSTOWN    CLOUDY    65  64  97 CALM      29.92S
TOMS RIVER     MOCLDY    63  61  94 CALM      29.94F
BELMAR         PTCLDY    66  61  82 CALM      29.94F
$$

PAZ047>061-062-071-200900-
EASTERN PENNSYLVANIA

CITY           SKY/WX    TMP DP  RH WIND       PRES   REMARKS
PHILADELPHIA   CLOUDY    73  64  73 CALM      29.95R
ALLENTOWN      CLOUDY    69  63  81 NE3       29.95R
SCRANTON       CLEAR     65  61  87 CALM      29.94S
$$

CTZ002-004>006-009-010-012-RIZ004-006-007-MAZ004-011-015-200900-
SOUTHERN NEW ENGLAND
 IN CT

CITY           SKY/WX    TMP DP  RH WIND       PRES   REMARKS
BRADLEY INTL   PTCLDY    58  55  90 CALM      29.96S
HARTFORD       PTCLDY    61  58  90 CALM      29.96S
DANBURY        CLOUDY    60  58  92 CALM      29.98S
WTRBRY/OXFORD  CLOUDY    64  61  88 CALM      29.99S VSB<1/4
BRIDGEPORT     CLEAR     65  62  90 N3        29.96R
MERIDEN        CLOUDY    62  60  93 CALM      29.97R
NEW HAVEN      CLEAR     62  60  93 CALM      29.96S
CHESTER        FOG       61  61 100 CALM      29.98S VSB<1/4
GROTON         PTCLDY    58  58 100 CALM      29.96S
WILLIMANTIC    PTCLDY    55  52  89 CALM      29.98S

 IN RI

CITY           SKY/WX    TMP DP  RH WIND       PRES   REMARKS
PROVIDENCE     PTCLDY    59  56  89 W5        29.97R
BLOCK ISLAND   MOCLDY    61  57  88 CALM      29.97R VSB 1/2
WESTERLY       FOG       59  57  93 CALM      29.98R VSB 1/4

 IN MA

CITY           SKY/WX    TMP DP  RH WIND       PRES   REMARKS
BOSTON         PTCLDY    64  56  75 CALM      29.96S
WORCESTER      CLEAR     60  57  89 W8        29.98F
WESTFIELD      CLEAR     57  54  89 CALM      29.97S
PROVINCETOWN   PTCLDY    54  52  94 MISG      29.97R
NANTUCKET      MOCLDY    56  53  90 CALM      29.96R
$$

ANZ330-335-338-340-345-350-353-355-200900-
COASTAL MARINE OBSERVATIONS


STATION/POSITION TIME  SKY/WX   TEMP    WIND        PRES    VSBY  WAVE
                                AIR SEA DIR/SP/G                  HT/PER
                 (UTC)          (F)     (DEG/KT/KT) (MB)    (MI)  (FT/S)
NY HARB ENTRANCE NOT AVBL
4S FIRE IS       NOT AVBL
23SW MTP         0800            67 69              1013.8          2/ 7
HUDSON CANYON    0800            72 72   70/ 10/ 12 1013.0          2/ 9
EXECUTION ROCKS  0800            70 72  140/  2/  4   N/A
WESTERN LI SOUND 0800            70      CALM  /  2   N/A           0
CENTRAL LI SOUND 0700            70 72  320/  2/  2   N/A           0
EASTERN LI SOUND 0700            66 69   60/  4/  6   N/A
ROBBINS REEF     0800            71     210/  1/  2   N/A
$$


>>>>>>>>>>>>>>>>>>>>>>>>>>>> KEY <<<<<<<<<<<<<<<<<<<<<<<<<<<
>                                                          <
>     SKY/WX - SKY CONDITION/PRESENT WEATHER               <
>     TMP    - TEMPERATURE IN FAHRENHEIT                   <
>     DP     - DEWPOINT IN FAHRENHEIT                      <
>     RH     - RELATIVE HUMIDITY IN PERCENT                <
>     WIND   - DIRECTION AND SPEED IN MPH                  <
>     PRES   - MEAN SEA LEVEL PRESSURE IN INCHES OF HG     <
>     WCI    - WIND CHILL INDEX                            <
>     VSB    - VISIBILITY IN MILES                         <
>     HX     - HEAT INDEX                                  <
>     TC     - TEMPERATURE IN CELSIUS                      <
>     VRB    - VARIABLE WIND DIRECTION                     <
>                                                          <
>>>>>>>>>>>>>>>>>>>>>>>>>>>> KEY <<<<<<<<<<<<<<<<<<<<<<<<<<<




USA.gov is the U.S. government's official web portal to all federal, state and local government web resources and services.